• In Uzbekistan
  • List of Countries
  • For 7 days
  • Water Temperature
  • Satellite Maps
  • Weather Map
  • Weather Widgets
  • user-avatar
    Login

    Hourly Weather Bejrut

    Today, 16 November, Friday

    Time Temperature Precipitation Wind Pressure Humidity
    00:00 +17°C° 0.4 mm 3 mps 755 mmHg 65%
    01:00 +17°C° 0.4 mm 4 mps 755 mmHg 68%
    02:00 +17°C° 0 mm 4 mps 755 mmHg 74%
    03:00 +16°C° 0.3 mm 5 mps 755 mmHg 77%
    04:00 +16°C° 0.3 mm 5 mps 755 mmHg 80%
    05:00 +16°C° 0.3 mm 5 mps 755 mmHg 83%
    06:00 +17°C° 0.4 mm 6 mps 756 mmHg 81%
    07:00 +17°C° 0.4 mm 6 mps 756 mmHg 79%
    08:00 +18°C° 0.4 mm 7 mps 756 mmHg 77%
    09:00 +18°C° 0.4 mm 7 mps 756 mmHg 75%
    10:00 +20°C° 0.4 mm 7 mps 757 mmHg 73%
    11:00 +20°C° 0.4 mm 7 mps 757 mmHg 72%
    12:00 +20°C° 0.3 mm 6 mps 757 mmHg 73%
    13:00 +20°C° 0.3 mm 6 mps 757 mmHg 73%
    14:00 +20°C° 0.3 mm 5 mps 758 mmHg 74%
    15:00 +19°C° 0.1 mm 5 mps 758 mmHg 76%
    16:00 +19°C° 0.1 mm 4 mps 758 mmHg 77%
    17:00 +19°C° 0.1 mm 3 mps 759 mmHg 79%
    18:00 +18°C° 0.1 mm 3 mps 759 mmHg 79%
    19:00 +18°C° 0.1 mm 2 mps 760 mmHg 80%
    20:00 +18°C° 0.1 mm 2 mps 760 mmHg 81%
    21:00 +17°C° 0.1 mm 2 mps 760 mmHg 81%
    22:00 +17°C° 0.1 mm 2 mps 761 mmHg 80%
    23:00 +17°C° 0.1 mm 2 mps 761 mmHg 80%

    Tomorrow, 17 November, Saturday

    Time Temperature Precipitation Wind Pressure Humidity
    00:00 +16°C° 0 mm 2 mps 761 mmHg 80%
    01:00 +16°C° 0 mm 2 mps 761 mmHg 80%
    02:00 +16°C° 0 mm 2 mps 761 mmHg 79%
    03:00 +16°C° 0 mm 2 mps 761 mmHg 79%
    04:00 +15°C° 0 mm 2 mps 761 mmHg 79%
    05:00 +15°C° 0 mm 2 mps 762 mmHg 79%
    06:00 +16°C° 0 mm 1 mps 762 mmHg 72%
    07:00 +19°C° 0 mm 1 mps 762 mmHg 65%
    08:00 +20°C° 0 mm 1 mps 762 mmHg 59%
    09:00 +21°C° 0 mm 1 mps 762 mmHg 53%
    10:00 +22°C° 0 mm 1 mps 763 mmHg 47%
    11:00 +23°C° 0 mm 1 mps 763 mmHg 42%
    12:00 +23°C° 0 mm 2 mps 762 mmHg 41%
    13:00 +23°C° 0 mm 2 mps 762 mmHg 40%
    14:00 +24°C° 0 mm 2 mps 761 mmHg 39%
    15:00 +23°C° 0 mm 2 mps 761 mmHg 45%
    16:00 +21°C° 0 mm 2 mps 761 mmHg 51%
    17:00 +20°C° 0 mm 2 mps 761 mmHg 57%
    18:00 +19°C° 0 mm 2 mps 761 mmHg 57%
    19:00 +19°C° 0 mm 2 mps 761 mmHg 58%
    20:00 +19°C° 0 mm 2 mps 761 mmHg 58%
    21:00 +18°C° 0 mm 2 mps 761 mmHg 59%
    22:00 +18°C° 0 mm 2 mps 761 mmHg 59%
    23:00 +18°C° 0 mm 2 mps 761 mmHg 59%

    Day after tomorrow, 18 November, Sunday

    Time Temperature Precipitation Wind Pressure Humidity
    00:00 +18°C° 0 mm 2 mps 761 mmHg 61%
    01:00 +18°C° 0 mm 2 mps 761 mmHg 63%
    02:00 +18°C° 0 mm 2 mps 761 mmHg 66%
    03:00 +17°C° 0 mm 2 mps 760 mmHg 68%
    04:00 +17°C° 0 mm 2 mps 760 mmHg 70%
    05:00 +17°C° 0 mm 2 mps 760 mmHg 72%
    06:00 +18°C° 0 mm 2 mps 760 mmHg 67%
    07:00 +19°C° 0 mm 2 mps 760 mmHg 62%
    08:00 +21°C° 0 mm 2 mps 761 mmHg 57%
    09:00 +23°C° 0 mm 2 mps 760 mmHg 51%
    10:00 +24°C° 0 mm 2 mps 760 mmHg 45%
    11:00 +25°C° 0 mm 2 mps 760 mmHg 39%
    12:00 +26°C° 0 mm 2 mps 759 mmHg 38%
    13:00 +26°C° 0 mm 2 mps 759 mmHg 37%
    14:00 +26°C° 0 mm 3 mps 758 mmHg 36%
    15:00 +25°C° 0 mm 3 mps 758 mmHg 41%
    16:00 +24°C° 0 mm 3 mps 758 mmHg 46%
    17:00 +22°C° 0 mm 3 mps 758 mmHg 50%
    18:00 +22°C° 0 mm 3 mps 758 mmHg 50%
    19:00 +22°C° 0 mm 3 mps 758 mmHg 50%
    20:00 +22°C° 0 mm 3 mps 758 mmHg 50%
    21:00 +22°C° 0 mm 3 mps 758 mmHg 49%
    22:00 +21°C° 0 mm 3 mps 757 mmHg 48%
    23:00 +21°C° 0 mm 2 mps 757 mmHg 47%

    19 November, Monday

    Time Temperature Precipitation Wind Pressure Humidity
    00:00 +21°C° 0 mm 2 mps 757 mmHg 47%
    01:00 +21°C° 0 mm 2 mps 757 mmHg 48%
    02:00 +21°C° 0 mm 2 mps 756 mmHg 48%
    03:00 +21°C° 0 mm 2 mps 756 mmHg 49%
    04:00 +20°C° 0 mm 2 mps 756 mmHg 49%
    05:00 +20°C° 0 mm 2 mps 756 mmHg 50%
    06:00 +21°C° 0 mm 2 mps 756 mmHg 48%
    07:00 +23°C° 0 mm 2 mps 757 mmHg 47%
    08:00 +24°C° 0 mm 1 mps 757 mmHg 45%
    09:00 +24°C° 0 mm 1 mps 757 mmHg 43%
    10:00 +25°C° 0 mm 1 mps 757 mmHg 41%
    11:00 +26°C° 0 mm 1 mps 757 mmHg 39%
    12:00 +26°C° 0 mm 1 mps 757 mmHg 40%
    13:00 +26°C° 0 mm 1 mps 757 mmHg 40%
    14:00 +26°C° 0 mm 1 mps 757 mmHg 40%
    15:00 +25°C° 0 mm 1 mps 757 mmHg 46%
    16:00 +24°C° 0 mm 1 mps 757 mmHg 52%
    17:00 +23°C° 0 mm 1 mps 757 mmHg 57%
    18:00 +22°C° 0 mm 1 mps 758 mmHg 59%
    19:00 +22°C° 0 mm 1 mps 758 mmHg 61%
    20:00 +19°C° 0 mm 0 mps 758 mmHg 62%
    21:00 +19°C° 0 mm 0 mps 758 mmHg 63%
    22:00 +19°C° 0 mm 0 mps 759 mmHg 63%
    23:00 +20°C° 0 mm 1 mps 759 mmHg 63%

    20 November, Tuesday

    Time Temperature Precipitation Wind Pressure Humidity
    00:00 +20°C° 0 mm 1 mps 759 mmHg 64%
    01:00 +20°C° 0 mm 1 mps 759 mmHg 65%
    02:00 +19°C° 0 mm 1 mps 759 mmHg 65%
    03:00 +19°C° 0 mm 1 mps 759 mmHg 65%
    04:00 +19°C° 0 mm 1 mps 759 mmHg 65%
    05:00 +18°C° 0 mm 1 mps 760 mmHg 65%
    06:00 +20°C° 0 mm 1 mps 760 mmHg 59%
    07:00 +21°C° 0 mm 1 mps 760 mmHg 54%
    08:00 +23°C° 0 mm 1 mps 761 mmHg 48%
    09:00 +24°C° 0 mm 1 mps 761 mmHg 43%
    10:00 +25°C° 0 mm 1 mps 761 mmHg 39%
    11:00 +26°C° 0 mm 1 mps 761 mmHg 34%
    12:00 +26°C° 0 mm 1 mps 760 mmHg 35%
    13:00 +26°C° 0 mm 1 mps 760 mmHg 35%
    14:00 +26°C° 0 mm 1 mps 760 mmHg 36%
    15:00 +25°C° 0 mm 1 mps 760 mmHg 42%
    16:00 +24°C° 0 mm 1 mps 760 mmHg 48%
    17:00 +23°C° 0 mm 1 mps 760 mmHg 55%
    18:00 +22°C° 0 mm 1 mps 761 mmHg 55%
    19:00 +22°C° 0 mm 1 mps 761 mmHg 55%
    20:00 +22°C° 0 mm 1 mps 761 mmHg 55%
    21:00 +21°C° 0 mm 1 mps 761 mmHg 55%
    22:00 +21°C° 0 mm 1 mps 761 mmHg 55%
    23:00 +21°C° 0 mm 1 mps 761 mmHg 55%

    21 November, Wednesday

    Time Temperature Precipitation Wind Pressure Humidity
    00:00 +21°C° 0 mm 1 mps 761 mmHg 55%
    01:00 +20°C° 0 mm 1 mps 760 mmHg 56%
    02:00 +20°C° 0 mm 1 mps 760 mmHg 56%
    03:00 +20°C° 0 mm 1 mps 760 mmHg 56%
    04:00 +20°C° 0 mm 1 mps 760 mmHg 57%
    05:00 +20°C° 0 mm 1 mps 760 mmHg 57%
    06:00 +21°C° 0 mm 1 mps 760 mmHg 54%
    07:00 +22°C° 0 mm 1 mps 760 mmHg 51%
    08:00 +24°C° 0 mm 1 mps 760 mmHg 48%
    09:00 +25°C° 0 mm 1 mps 760 mmHg 44%
    10:00 +26°C° 0 mm 1 mps 760 mmHg 41%
    11:00 +27°C° 0 mm 1 mps 760 mmHg 37%
    12:00 +27°C° 0 mm 1 mps 759 mmHg 36%
    13:00 +27°C° 0 mm 1 mps 759 mmHg 36%
    14:00 +27°C° 0 mm 2 mps 758 mmHg 35%
    15:00 +26°C° 0 mm 1 mps 758 mmHg 40%
    16:00 +25°C° 0 mm 1 mps 758 mmHg 45%
    17:00 +24°C° 0 mm 1 mps 758 mmHg 50%
    18:00 +24°C° 0 mm 1 mps 758 mmHg 50%
    19:00 +22°C° 0 mm 0 mps 758 mmHg 51%
    20:00 +21°C° 0 mm 0 mps 758 mmHg 52%
    21:00 +21°C° 0 mm 0 mps 758 mmHg 52%
    22:00 +21°C° 0 mm 0 mps 758 mmHg 52%
    23:00 +20°C° 0 mm 0 mps 758 mmHg 52%
    Show more